TIME,DELAY(SENSOR),PRES,T(CTD),SAL,OXYGEN,RAWTEMP,T(OPTODE),TCPHASE,TURBIDITY,TURBIDITY_GAIN,FLUOR,BETA,CDOM,ED411.5,ED443.8,ED489.6,PAR,COMP,TILT,TILTY(TILT),CHECK
1341808134,6469,231.3500061035156200,4.9664001464843750,34.9744987487793000,361.9334106445312500,653.2233276367188000,4.9452648162841800,32.4375000000000000,16,3,48,112,62,2147634513,2147393672,2147284927,2148322952,2370,2,-4,6534
1341808195,6467,228.2299957275390600,4.9661998748779300,34.9747009277343750,361.8721008300781000,653.2078247070312000,4.9457721710205080,32.4391212463378900,16,3,48,105,62,2147635524,2147393745,2147285823,2148323222,2096,2,-4,29722
1341808256,6468,225.0000000000000000,4.9670000076293945,34.9742012023925800,361.9045104980469000,653.1885986328125000,4.9463958740234375,32.4378204345703100,16,3,48,108,62,2147637132,2147395866,2147282308,2148321073,1838,2,-4,59054
1341808317,6469,221.7700042724609400,4.9672999382019040,34.9740982055664060,362.0484008789062500,653.1765136718750000,4.9467887878417970,32.4330482482910160,15,3,48,111,63,2147637183,2147393425,2147282290,2148322761,1582,2,-4,17284
1341808378,6467,218.5500030517578000,4.9679999351501465,34.9737014770507800,362.1726074218750000,653.1605834960938000,4.9473061561584470,32.4288101196289060,16,3,48,106,62,2147634518,2147394125,2147283085,2148322733,1286,2,-4,8984
1341808439,6468,215.3399963378906200,4.9675002098083500,34.9743003845214840,362.3474121093750000,653.1564941406250000,4.9474391937255860,32.4230918884277340,16,3,49,107,62,2147636603,2147392557,2147283675,2148322829,893,2,-4,46568
1341808500,6468,212.1600036621093800,4.9684000015258790,34.9743995666503900,362.3151855468750000,653.1268920898438000,4.9484038352966310,32.4233207702636700,15,3,50,114,63,2147634572,2147395948,2147285865,2148321353,336,2,-5,8932
1341808561,6470,208.9799957275390600,4.9690999984741210,34.9742012023925800,362.3664855957031000,653.1102294921875000,4.9489440917968750,32.4216613769531250,16,3,49,106,62,2147633215,2147395245,2147283355,2148319099,3332,2,-4,39973
1341808622,6467,205.8000030517578000,4.9692001342773440,34.9739990234375000,362.4028930664062500,653.1110229492188000,4.9489212036132810,32.4205818176269500,16,3,49,112,62,2147634162,2147393343,2147283053,2148322788,2861,2,-4,28159
1341808683,6469,202.5599975585937500,4.9692997932434080,34.9738006591796900,362.7200012207031000,653.1113281250000000,4.9489121437072750,32.4103088378906250,15,3,48,113,62,2147632649,2147391460,2147283958,2148321325,2558,2,-4,29003
1341808746,6466,199.2200012207031200,4.9690999984741210,34.9737014770507800,362.7589111328125000,653.1166992187500000,4.9487338066101070,32.4090118408203100,16,3,50,113,62,2147633243,2147393170,2147282897,2148324447,2244,2,-5,43979
1341808807,6468,196.0099945068359400,4.9702000617980960,34.9738006591796900,362.7727966308594000,653.0717163085938000,4.9501991271972660,32.4081306457519500,12,3,48,108,62,2147635478,2147393270,2147281933,2148323245,1954,2,-4,60736
1341808870,6467,192.6499938964843800,4.9706997871398930,34.9734992980957000,362.9191894531250000,653.0535888671875000,4.9507851600646970,32.4029197692871100,16,3,50,111,62,2147634651,2147393467,2147283469,2148321325,1671,2,-6,57170
1341808931,6469,189.3800048828125000,4.9718999862670900,34.9738006591796900,363.0289916992187500,653.0178222656250000,4.9519519805908200,32.3989181518554700,16,3,48,123,62,2147635853,2147393709,2147282212,2148321672,1369,2,-6,9506
1341808994,6466,186.0500030517578000,4.9731001853942870,34.9733009338378900,363.2825927734375000,652.9910888671875000,4.9528222084045410,32.3903999328613300,16,3,50,111,62,2147634134,2147392370,2147285526,2148320689,1033,2,-6,53313
1341809055,6467,182.8500061035156200,4.9741001129150390,34.9734992980957000,363.3728942871094000,652.9483032226562000,4.9542121887207030,32.3865509033203100,16,3,49,112,62,2147635153,2147393517,2147282523,2148319963,576,2,-6,44719
1341809122,6469,179.3600006103515600,4.9753999710083010,34.9730987548828100,363.5062866210937500,652.9121093750000000,4.9553909301757810,32.3818206787109400,16,3,50,117,62,2147633289,2147396753,2147283812,2148321260,3568,2,-4,43710
1341809183,6470,176.2299957275390600,4.9770002365112305,34.9728012084960940,363.4905090332031000,652.8748779296875000,4.9566020965576170,32.3814811706543000,16,3,48,106,62,2147635446,2147393462,2147284292,2148322070,3126,2,-5,5118
1341809246,6466,173.0800018310547000,4.9779000282287600,34.9732017517089840,363.6413879394531000,652.8331298828125000,4.9579601287841800,32.3758888244628900,16,3,49,116,62,2147634130,2147392452,2147284018,2148322057,2767,2,-4,2242
1341809307,6468,170.0399932861328000,4.9811000823974610,34.9729995727539060,363.6099853515625000,652.7404785156250000,4.9609742164611820,32.3753204345703100,16,3,49,154,62,2147635579,2147392786,2147281531,2148321956,2528,2,-4,45029
1341809370,6468,166.9700012207031200,4.9826998710632320,34.9735984802246100,363.6370849609375000,652.6766967773438000,4.9630489349365230,32.3735084533691400,16,3,50,121,62,2147634495,2147396566,2147283035,2148324159,2227,2,-4,48241
1341809431,6468,164.0399932861328000,4.9888000488281250,34.9733009338378900,363.4407958984375000,652.5142211914062000,4.9683361053466800,32.3764610290527340,16,3,50,110,61,2147635094,2147394326,2147279578,2148325722,1969,2,-4,41203
1341809494,6469,161.0299987792968800,4.9948000907897950,34.9738006591796900,363.3583984375000000,652.3228759765625000,4.9745578765869140,32.3758201599121100,16,3,50,114,62,2147634769,2147395314,2147281965,2148322157,1760,2,-4,28163
1341809555,6467,158.1399993896484400,5.0064997673034670,34.9742012023925800,363.1736145019531000,651.9899902343750000,4.9853878021240230,32.3755607604980500,16,3,50,114,62,2147634710,2147393965,2147282395,2148321229,1513,2,-5,54836
1341809618,6468,155.1799926757812500,5.0187001228332520,34.9748992919921900,362.8637084960937500,651.6201171875000000,4.9974160194396970,32.3788681030273440,20,3,48,113,62,2147636351,2147392013,2147280717,2148321864,1292,2,-4,12098
1341809679,6470,152.3399963378906200,5.0198001861572270,34.9754981994628900,362.6849975585937500,651.5562744140625000,4.9994888305664060,32.3836402893066400,13,3,49,126,62,2147636749,2147392978,2147284772,2148322902,1075,2,-4,27888
1341809742,6468,149.4299926757812500,5.0205998420715330,34.9752006530761700,362.6907958984375000,651.5274047851562000,5.0004310607910160,32.3827400207519500,16,3,49,109,62,2147633531,2147392292,2147284452,2148323743,662,2,-6,601
1341809803,6467,146.6399993896484400,5.0246000289916990,34.9757003784179700,362.5994873046875000,651.3986816406250000,5.0046138763427730,32.3833007812500000,16,3,50,113,60,2147638116,2147394779,2147282678,2148324242,195,2,-6,50040
1341809866,6467,143.8000030517578000,5.0281000137329100,34.9757003784179700,362.5415954589844000,651.2929077148438000,5.0080571174621580,32.3833198547363300,16,3,49,110,62,2147632360,2147393329,2147285115,2148325600,3309,2,-6,12035
1341809927,6469,141.0299987792968800,5.0314002037048340,34.9763984680175800,362.5054931640625000,651.1817016601562000,5.0116710662841800,32.3824386596679700,16,3,50,116,62,2147637947,2147394047,2147282856,2148322843,2967,2,-6,13649
1341809990,6467,138.1900024414062500,5.0426998138427730,34.9767990112304700,362.2984924316406000,650.8012084960938000,5.0240421295166020,32.3821411132812500,15,3,50,178,62,2147632946,2147394880,2147282746,2148323451,2701,2,-5,21034
1341810051,6467,135.5099945068359400,5.0534000396728520,34.9780998229980500,362.0091857910156000,650.5399780273438000,5.0325360298156740,32.3869209289550800,16,3,50,121,64,2147633914,2147394033,2147284813,2148319880,2487,2,-6,27088
1341810114,6467,132.8000030517578000,5.0615000724792480,34.9786987304687500,361.7474060058594000,650.2979125976562000,5.0404047966003420,32.3909111022949200,16,3,50,115,62,2147634189,2147393914,2147286678,2148323625,2292,2,-5,43006
1341810175,6468,130.2100067138672000,5.0644998550415040,34.9791984558105500,361.5971069335937500,650.1851806640625000,5.0440649986267090,32.3935890197753900,18,3,50,118,62,2147633993,2147392320,2147281270,2148324964,2066,2,-6,57296
1341810238,6467,127.5500030517578100,5.0770001411437990,34.9795989990234400,361.4638977050781000,649.8245849609375000,5.0557899475097660,32.3913383483886700,13,3,50,114,62,2147634340,2147393819,2147284731,2148323898,1911,2,-4,24920
1341810299,6467,125.0500030517578100,5.0959000587463380,34.9812011718750000,361.1694946289062500,649.1763916015625000,5.0768527984619140,32.3893394470214840,16,3,50,113,62,2147635652,2147393654,2147283903,2148323304,1711,2,-5,63367
1341810362,6466,122.5199966430664000,5.1209998130798340,34.9833984375000000,360.6629943847656000,648.5230712890625000,5.0980801582336430,32.3937492370605500,16,3,50,133,62,2147634943,2147392621,2147280566,2148323808,1414,2,-5,45628
1341810423,6468,120.1500015258789000,5.1290001869201660,34.9846000671386700,360.5450134277344000,648.1990966796875000,5.1086030006408690,32.3917198181152340,20,3,50,114,62,2147635922,2147394152,2147284169,2148322843,1192,2,-6,18553
1341810514,6468,115.9499969482421900,5.1533999443054200,34.9868011474609400,360.3125000000000000,647.4932861328125000,5.1315269470214840,32.3865699768066400,16,3,52,117,62,2147633892,2147395917,2147282916,2148323451,596,2,-6,52
1341810575,6469,112.2900009155273400,5.1627001762390140,34.9874000549316400,360.1158142089844000,647.1301879882812000,5.1433181762695310,32.3866386413574200,16,3,53,119,62,2147635707,2147393137,2147286628,2148325531,3325,2,-6,9366
1341810638,6467,108.5299987792968800,5.1831998825073240,34.9892005920410160,359.8125915527344000,646.4771728515625000,5.1645178794860840,32.3843994140625000,20,3,56,118,63,2147633746,2147393787,2147286482,2148324058,2786,2,-6,55305
1341810699,6467,104.8399963378906200,5.2019000053405760,34.9906997680664060,359.4111938476562500,645.9843750000000000,5.1805148124694820,32.3885383605957000,15,3,55,122,62,2147636186,2147394870,2147283624,2148323012,2396,2,-6,2611
1341810786,6466,100.0100021362304700,5.2164998054504395,34.9921989440918000,359.2927856445312500,645.5250244140625000,5.1954269409179690,32.3842697143554700,16,3,58,122,62,2147638353,2147396338,2147283670,2148321462,1915,2,-5,62761
1341810847,6468,97.2300033569336000,5.2265000343322750,34.9925003051757800,359.1922912597656000,645.2426147460938000,5.2045941352844240,32.3825988769531250,16,3,60,121,62,2147635185,2147394742,2147286898,2148322056,1586,2,-6,27667
1341810910,6469,94.2799987792968800,5.2555999755859375,34.9953002929687500,358.8320922851562500,644.3800048828125000,5.2325801849365230,32.3785018920898440,12,3,66,128,62,2147635890,2147395492,2147287808,2148320237,1265,2,-6,33390
1341810971,6467,91.2500000000000000,5.2687001228332520,34.9961013793945300,358.7992858886719000,643.9290771484375000,5.2472062110900880,32.3716011047363300,16,3,69,130,62,2147637407,2147395364,2147286244,2148317339,1043,2,-6,7071
1341811034,6468,88.0400009155273400,5.2803001403808590,34.9967002868652340,358.7128906250000000,643.4910888671875000,5.2614140510559080,32.3666191101074200,23,3,72,133,62,2147634070,2147396649,2147289485,2148324274,623,2,-6,29706
1341811095,6465,84.8399963378906200,5.2965002059936520,34.9968986511230500,358.5826110839844000,643.0300292968750000,5.2763690948486330,32.3626594543457000,15,3,74,133,62,2147635039,2147397576,2147294070,2148323894,59,2,-5,39169
1341811158,6467,81.5100021362304700,5.3066000938415530,34.9972000122070300,358.5527038574219000,642.7177124023438000,5.2864928245544430,32.3579216003418000,17,3,75,143,62,2147634111,2147398875,2147296506,2148324022,3120,2,-5,42518
1341811219,6466,78.3099975585937500,5.3109998703002930,34.9973983764648440,358.7443847656250000,642.5374145507812000,5.2923412322998050,32.3486900329589840,16,3,75,135,62,2147633942,2147398148,2147299337,2148323784,2845,2,-6,1013
1341811282,6469,75.1399993896484400,5.3158998489379880,34.9971008300781250,358.6813964843750000,642.4136962890625000,5.2963500022888180,32.3485908508300800,14,3,74,137,62,2147637133,2147395798,2147304502,2148324059,2658,2,-6,37283
1341811343,6468,72.3399963378906200,5.3214001655578610,34.9966011047363300,358.6221008300781000,642.2636718750000000,5.3012118339538570,32.3479118347168000,13,3,76,138,62,2147634586,2147396831,2147306697,2148326600,2458,2,-6,29426
1341811406,6467,69.7300033569336000,5.3470001220703125,34.9963989257812500,358.5331115722656000,641.5687866210938000,5.3237400054931640,32.3381996154785160,13,3,82,138,62,2147634642,2147396333,2147308959,2148325005,2187,2,-6,10248
1341811467,6469,67.5199966430664000,5.3586997985839840,34.9964981079101560,358.6026000976562500,641.1367187500000000,5.3377442359924320,32.3282699584960940,15,3,83,144,63,2147635263,2147397622,2147314235,2148326262,2081,2,-6,61787
1341811554,6468,64.3000030517578100,5.3998999595642090,34.9956016540527340,358.4856872558594000,639.8889770507812000,5.3781681060791020,32.3099403381347660,57,3,100,153,62,2147633485,2147400493,2147316223,2148327569,1735,2,-6,1424
1341811615,6469,61.6699981689453100,5.4485001564025880,34.9949989318847660,358.3710937500000000,638.3007812500000000,5.4296040534973145,32.2854690551757800,18,3,117,151,61,2147636840,2147402765,2147317279,2148329970,1331,2,-6,20274
1341811678,6469,59.0999984741210940,5.4984002113342285,34.9973983764648440,358.8554992675781000,636.9229736328125000,5.4742050170898440,32.2458190917968750,16,3,112,150,62,2147636694,2147406793,2147320105,2148329434,970,2,-6,23875
1341811739,6469,56.7099990844726560,5.6563000679016110,34.9966011047363300,359.6611938476562500,632.2965698242188000,5.6238169670104980,32.1385002136230500,17,3,126,198,61,2147637398,2147401828,2147322468,2148330002,289,2,-5,29205
1341811828,6470,52.3499984741210940,5.7996997833251950,34.9957008361816400,362.8511047363281000,627.8259277343750000,5.7681832313537600,31.9587707519531250,23,3,190,206,62,2147641581,2147409266,2147335762,2148332068,2592,2,-6,55523
1341811889,6469,48.1199989318847660,5.8143000602722170,34.9962997436523440,365.9695129394531000,627.0844726562500000,5.7921028137207030,31.8477993011474600,24,3,206,214,63,2147642879,2147418180,2147355474,2148336186,2259,2,-6,42408
1341811975,6471,41.2299995422363300,5.8730998039245605,34.9954986572265600,368.6091918945312500,625.1209716796875000,5.8554291725158690,31.7313804626464840,31,3,290,257,64,2147657659,2147442152,2147421101,2148357508,1443,2,-6,2089
1341812036,6469,36.0299987792968750,6.0714998245239260,34.9908981323242200,372.1422119140625000,618.2675170898438000,6.0761570930480960,31.5048294067382800,58,3,446,499,64,2147685279,2147493270,2147519985,2148384927,1146,2,-6,36828
1341812125,6472,28.5799999237060550,6.4949998855590820,34.9832000732421900,385.0335998535156000,606.6881103515625000,6.4480209350585940,30.9225807189941400,94,3,565,744,64,2147776287,2147635409,2147784754,2148471734,404,2,-4,9006
1341812186,6470,24.8600006103515620,6.6311998367309570,34.9856986999511700,393.2145996093750000,602.1248168945312000,6.5942101478576660,30.6097297668457030,112,3,574,843,64,2147887478,2147795117,2148046861,2148557247,651,2,-6,58018
1341812276,6469,21.8999996185302730,6.7210001945495605,34.9874992370605500,400.6492919921875000,599.4799194335938000,6.6788458824157715,30.3561801910400400,115,3,591,802,64,2147960886,2147902148,2148214276,2148615812,1569,2,-6,52647
1341812783,6469,18.2299995422363280,9.3895998001098630,34.9674987792968750,390.4020996093750000,507.6885070800781000,9.5782241821289060,29.2130107879638670,105,3,393,806,60,2149457106,2149606162,2150280205,2149379789,2632,1,-6,16779
1341812844,6472,12.0900001525878900,10.5234003067016600,34.9734001159668000,378.2796936035156000,480.2518920898437500,10.4322004318237300,29.1561393737792970,89,3,352,648,60,2151234116,2151500598,2152323094,2150324004,2410,1,-4,57639
1341812923,6470,5.5199999809265140,10.7762002944946290,34.9836006164550800,369.3031921386719000,469.7171936035156000,10.7587795257568360,29.2666606903076170,89,3,325,654,58,2154362435,2154638513,2155381430,2152278495,2389,13,0,13260
1341812983,6470,3.4200000762939453,0.0000000000000000,0.0000000000000000,366.4343872070312500,467.8232116699219000,10.8174200057983400,29.3248996734619140,86,3,317,668,57,2155462875,2155724090,2156381128,2153192566,2416,-5,-9,44080
1341813034,6469,15.0000000000000000,0.0000000000000000,0.0000000000000000,364.6853027343750000,466.3182067871094000,10.8640003204345700,29.3556594848632800,87,3,312,642,60,2156755418,2156972433,2157495766,2154578605,2227,2,-6,14203
